Year,Month,Day,Hour,Minute,Value (Times are PST for temperature in C)
2018,10,24,00,00,7.90
2018,10,24,00,01,7.80
2018,10,24,00,02,7.80
2018,10,24,00,03,7.80
2018,10,24,00,04,7.80
2018,10,24,00,05,7.80
2018,10,24,00,06,7.80
2018,10,24,00,07,7.80
2018,10,24,00,08,7.80
2018,10,24,00,09,7.80
2018,10,24,00,10,7.80
2018,10,24,00,11,7.80
2018,10,24,00,12,7.80
2018,10,24,00,13,7.80
2018,10,24,00,14,7.80
2018,10,24,00,15,7.80
2018,10,24,00,16,7.80
2018,10,24,00,17,7.80
2018,10,24,00,18,7.70
2018,10,24,00,19,7.70
2018,10,24,00,20,7.70
2018,10,24,00,21,7.70
2018,10,24,00,22,7.60
2018,10,24,00,23,7.60
2018,10,24,00,24,7.60
2018,10,24,00,25,7.60
2018,10,24,00,26,7.60
2018,10,24,00,27,7.60
2018,10,24,00,28,7.50
2018,10,24,00,29,7.50
2018,10,24,00,30,7.50
2018,10,24,00,31,7.40
2018,10,24,00,32,7.40
2018,10,24,00,33,7.30
2018,10,24,00,34,7.30
2018,10,24,00,35,7.30
2018,10,24,00,36,7.20
2018,10,24,00,37,7.20
2018,10,24,00,38,7.20
2018,10,24,00,39,7.20
2018,10,24,00,40,7.20
2018,10,24,00,41,7.20
2018,10,24,00,42,7.30
2018,10,24,00,43,7.30
2018,10,24,00,44,7.30
2018,10,24,00,45,7.40
2018,10,24,00,46,7.40
2018,10,24,00,47,7.40
2018,10,24,00,48,7.40
2018,10,24,00,49,7.40
2018,10,24,00,50,7.40
2018,10,24,00,51,7.30
2018,10,24,00,52,7.30
2018,10,24,00,53,7.40
2018,10,24,00,54,7.40
2018,10,24,00,55,7.40
2018,10,24,00,56,7.40
2018,10,24,00,57,7.50
2018,10,24,00,58,7.60
2018,10,24,00,59,7.50
2018,10,24,01,00,7.50
2018,10,24,01,01,7.50
2018,10,24,01,02,7.40
2018,10,24,01,03,7.40
2018,10,24,01,04,7.40
2018,10,24,01,05,7.40
2018,10,24,01,06,7.40
2018,10,24,01,07,7.30
2018,10,24,01,08,7.30
2018,10,24,01,09,7.20
2018,10,24,01,10,7.20
2018,10,24,01,11,7.20
2018,10,24,01,12,7.20
2018,10,24,01,13,7.20
2018,10,24,01,14,7.20
2018,10,24,01,15,7.20
2018,10,24,01,16,7.20
2018,10,24,01,17,7.20
2018,10,24,01,18,7.20
2018,10,24,01,19,7.20
2018,10,24,01,20,7.10
2018,10,24,01,21,7.10
2018,10,24,01,22,7.10
2018,10,24,01,23,7.00
2018,10,24,01,24,7.00
2018,10,24,01,25,7.00
2018,10,24,01,26,7.00
2018,10,24,01,27,7.00
2018,10,24,01,28,7.00
2018,10,24,01,29,7.00
2018,10,24,01,30,6.90
2018,10,24,01,31,6.90
2018,10,24,01,32,6.90
2018,10,24,01,33,6.90
2018,10,24,01,34,6.90
2018,10,24,01,35,6.90
2018,10,24,01,36,6.90
2018,10,24,01,37,6.90
2018,10,24,01,38,6.90
2018,10,24,01,39,6.90
2018,10,24,01,40,7.00
2018,10,24,01,41,6.90
2018,10,24,01,42,6.90
2018,10,24,01,43,6.90
2018,10,24,01,44,6.90
2018,10,24,01,45,6.90
2018,10,24,01,46,6.90
2018,10,24,01,47,6.90
2018,10,24,01,48,6.90
2018,10,24,01,49,6.90
2018,10,24,01,50,6.90
2018,10,24,01,51,6.90
2018,10,24,01,52,6.80
2018,10,24,01,53,6.80
2018,10,24,01,54,6.80
2018,10,24,01,55,6.80
2018,10,24,01,56,6.80
2018,10,24,01,57,6.80
2018,10,24,01,58,6.80
2018,10,24,01,59,6.80
2018,10,24,02,00,6.80
2018,10,24,02,01,6.80
2018,10,24,02,02,6.80
2018,10,24,02,03,6.80
2018,10,24,02,04,6.80
2018,10,24,02,05,6.80
2018,10,24,02,06,6.80
2018,10,24,02,07,6.80
2018,10,24,02,08,6.80
2018,10,24,02,09,6.90
2018,10,24,02,10,6.90
2018,10,24,02,11,6.90
2018,10,24,02,12,6.80
2018,10,24,02,13,6.80
2018,10,24,02,14,6.80
2018,10,24,02,15,6.80
2018,10,24,02,16,6.80
2018,10,24,02,17,6.80
2018,10,24,02,18,6.80
2018,10,24,02,19,6.80
2018,10,24,02,20,6.80
2018,10,24,02,21,6.80
2018,10,24,02,22,6.70
2018,10,24,02,23,6.70
2018,10,24,02,24,6.70
2018,10,24,02,25,6.70
2018,10,24,02,26,6.60
2018,10,24,02,27,6.60
2018,10,24,02,28,6.60
2018,10,24,02,29,6.60
2018,10,24,02,30,6.60
2018,10,24,02,31,6.60
2018,10,24,02,32,6.60
2018,10,24,02,33,6.60
2018,10,24,02,34,6.60
2018,10,24,02,35,6.60
2018,10,24,02,36,6.50
2018,10,24,02,37,6.50
2018,10,24,02,38,6.50
2018,10,24,02,39,6.50
2018,10,24,02,40,6.50
2018,10,24,02,41,6.50
2018,10,24,02,42,6.50
2018,10,24,02,43,6.50
2018,10,24,02,44,6.50
2018,10,24,02,45,6.50
2018,10,24,02,46,6.50
2018,10,24,02,47,6.50
2018,10,24,02,48,6.40
2018,10,24,02,49,6.40
2018,10,24,02,50,6.40
2018,10,24,02,51,6.40
2018,10,24,02,52,6.40
2018,10,24,02,53,6.40
2018,10,24,02,54,6.40
2018,10,24,02,55,6.40
2018,10,24,02,56,6.40
2018,10,24,02,57,6.30
2018,10,24,02,58,6.30
2018,10,24,02,59,6.30
2018,10,24,03,00,6.30
2018,10,24,03,01,6.30
2018,10,24,03,02,6.30
2018,10,24,03,03,6.30
2018,10,24,03,04,6.30
2018,10,24,03,05,6.30
2018,10,24,03,06,6.30
2018,10,24,03,07,6.30
2018,10,24,03,08,6.30
2018,10,24,03,09,6.30
2018,10,24,03,10,6.30
2018,10,24,03,11,6.30
2018,10,24,03,12,6.20
2018,10,24,03,13,6.20
2018,10,24,03,14,6.20
2018,10,24,03,15,6.20
2018,10,24,03,16,6.20
2018,10,24,03,17,6.20
2018,10,24,03,18,6.20
2018,10,24,03,19,6.20
2018,10,24,03,20,6.20
2018,10,24,03,21,6.20
2018,10,24,03,22,6.20
2018,10,24,03,23,6.20
2018,10,24,03,24,6.20
2018,10,24,03,25,6.20
2018,10,24,03,26,6.10
2018,10,24,03,27,6.10
2018,10,24,03,28,6.10
2018,10,24,03,29,6.10
2018,10,24,03,30,6.10
2018,10,24,03,31,6.00
2018,10,24,03,32,6.00
2018,10,24,03,33,6.00
2018,10,24,03,34,6.00
2018,10,24,03,35,6.00
2018,10,24,03,36,6.00
2018,10,24,03,37,6.00
2018,10,24,03,38,6.10
2018,10,24,03,39,6.10
2018,10,24,03,40,6.10
2018,10,24,03,41,6.10
2018,10,24,03,42,6.10
2018,10,24,03,43,6.10
2018,10,24,03,44,6.10
2018,10,24,03,45,6.10
2018,10,24,03,46,6.00
2018,10,24,03,47,6.10
2018,10,24,03,48,6.10
2018,10,24,03,49,6.10
2018,10,24,03,50,6.10
2018,10,24,03,51,6.10
2018,10,24,03,52,6.10
2018,10,24,03,53,6.10
2018,10,24,03,54,6.10
2018,10,24,03,55,6.10
2018,10,24,03,56,6.10
2018,10,24,03,57,6.10
2018,10,24,03,58,6.10
2018,10,24,03,59,6.10
2018,10,24,04,00,6.10
2018,10,24,04,01,6.10
2018,10,24,04,02,6.00
2018,10,24,04,03,6.00
2018,10,24,04,04,6.00
2018,10,24,04,05,6.00
2018,10,24,04,06,6.00
2018,10,24,04,07,6.00
2018,10,24,04,08,6.00
2018,10,24,04,09,6.00
2018,10,24,04,10,6.00
2018,10,24,04,11,5.90
2018,10,24,04,12,5.90
2018,10,24,04,13,5.90
2018,10,24,04,14,5.90
2018,10,24,04,15,5.90
2018,10,24,04,16,5.80
2018,10,24,04,17,5.80
2018,10,24,04,18,5.80
2018,10,24,04,19,5.70
2018,10,24,04,20,5.70
2018,10,24,04,21,5.70
2018,10,24,04,22,5.70
2018,10,24,04,23,5.60
2018,10,24,04,24,5.60
2018,10,24,04,25,5.60
2018,10,24,04,26,5.50
2018,10,24,04,27,5.50
2018,10,24,04,28,5.40
2018,10,24,04,29,5.40
2018,10,24,04,30,5.30
2018,10,24,04,31,5.30
2018,10,24,04,32,5.30
2018,10,24,04,33,5.30
2018,10,24,04,34,5.20
2018,10,24,04,35,5.20
2018,10,24,04,36,5.20
2018,10,24,04,37,5.20
2018,10,24,04,38,5.20
2018,10,24,04,39,5.20
2018,10,24,04,40,5.20
2018,10,24,04,41,5.20
2018,10,24,04,42,5.20
2018,10,24,04,43,5.20
2018,10,24,04,44,5.20
2018,10,24,04,45,5.20
2018,10,24,04,46,5.20
2018,10,24,04,47,5.20
2018,10,24,04,48,5.30
2018,10,24,04,49,5.30
2018,10,24,04,50,5.30
2018,10,24,04,51,5.30
2018,10,24,04,52,5.30
2018,10,24,04,53,5.30
2018,10,24,04,54,5.30
2018,10,24,04,55,5.30
2018,10,24,04,56,5.30
2018,10,24,04,57,5.30
2018,10,24,04,58,5.40
2018,10,24,04,59,5.40
2018,10,24,05,00,5.40
2018,10,24,05,01,5.40
2018,10,24,05,02,5.40
2018,10,24,05,03,5.30
2018,10,24,05,04,5.30
2018,10,24,05,05,5.30
2018,10,24,05,06,5.30
2018,10,24,05,07,5.30
2018,10,24,05,08,5.30
2018,10,24,05,09,5.30
2018,10,24,05,10,5.30
2018,10,24,05,11,5.30
2018,10,24,05,12,5.40
2018,10,24,05,13,5.50
2018,10,24,05,14,5.50
2018,10,24,05,15,5.60
2018,10,24,05,16,5.70
2018,10,24,05,17,5.70
2018,10,24,05,18,5.70
2018,10,24,05,19,5.70
2018,10,24,05,20,5.70
2018,10,24,05,21,5.80
2018,10,24,05,22,5.80
2018,10,24,05,23,5.80
2018,10,24,05,24,5.80
2018,10,24,05,25,5.80
2018,10,24,05,26,5.80
2018,10,24,05,27,5.80
2018,10,24,05,28,5.80
2018,10,24,05,29,5.70
2018,10,24,05,30,5.70
2018,10,24,05,31,5.70
2018,10,24,05,32,5.70
2018,10,24,05,33,5.70
2018,10,24,05,34,5.60
2018,10,24,05,35,5.60
2018,10,24,05,36,5.50
2018,10,24,05,37,5.50
2018,10,24,05,38,5.50
2018,10,24,05,39,5.40
2018,10,24,05,40,5.40
2018,10,24,05,41,5.40
2018,10,24,05,42,5.40
2018,10,24,05,43,5.30
2018,10,24,05,44,5.30
2018,10,24,05,45,5.30
2018,10,24,05,46,5.30
2018,10,24,05,47,5.30
2018,10,24,05,48,5.30
2018,10,24,05,49,5.30
2018,10,24,05,50,5.30
2018,10,24,05,51,5.20
2018,10,24,05,52,5.20
2018,10,24,05,53,5.20
2018,10,24,05,54,5.20
2018,10,24,05,55,5.20
2018,10,24,05,56,5.20
2018,10,24,05,57,5.20
2018,10,24,05,58,5.20
2018,10,24,05,59,5.20
2018,10,24,06,00,5.20
2018,10,24,06,01,5.20
2018,10,24,06,02,5.20
2018,10,24,06,03,5.20
2018,10,24,06,04,5.20
2018,10,24,06,05,5.20
2018,10,24,06,06,5.20
2018,10,24,06,07,5.20
2018,10,24,06,08,5.20
2018,10,24,06,09,5.20
2018,10,24,06,10,5.20
2018,10,24,06,11,5.20
2018,10,24,06,12,5.20
2018,10,24,06,13,5.20
2018,10,24,06,14,5.10
2018,10,24,06,15,5.10
2018,10,24,06,16,5.10
2018,10,24,06,17,5.10
2018,10,24,06,18,5.10
2018,10,24,06,19,5.10
2018,10,24,06,20,5.10
2018,10,24,06,21,5.20
2018,10,24,06,22,5.20
2018,10,24,06,23,5.20
2018,10,24,06,24,5.20
2018,10,24,06,25,5.20
2018,10,24,06,26,5.20
2018,10,24,06,27,5.20
2018,10,24,06,28,5.20
2018,10,24,06,29,5.20
2018,10,24,06,30,5.20
2018,10,24,06,31,5.20
2018,10,24,06,32,5.20
2018,10,24,06,33,5.20
2018,10,24,06,34,5.20
2018,10,24,06,35,5.20
2018,10,24,06,36,5.20
2018,10,24,06,37,5.10
2018,10,24,06,38,5.10
2018,10,24,06,39,5.10
2018,10,24,06,40,5.10
2018,10,24,06,41,5.20
2018,10,24,06,42,5.20
2018,10,24,06,43,5.20
2018,10,24,06,44,5.20
2018,10,24,06,45,5.20
2018,10,24,06,46,5.20
2018,10,24,06,47,5.20
2018,10,24,06,48,5.20
2018,10,24,06,49,5.20
2018,10,24,06,50,5.20
2018,10,24,06,51,5.20
2018,10,24,06,52,5.20
2018,10,24,06,53,5.20
2018,10,24,06,54,5.20
2018,10,24,06,55,5.20
2018,10,24,06,56,5.10
2018,10,24,06,57,5.10
2018,10,24,06,58,5.10
2018,10,24,06,59,5.10
2018,10,24,07,00,5.10
2018,10,24,07,01,5.10
2018,10,24,07,02,5.10
2018,10,24,07,03,5.10
2018,10,24,07,04,5.10
2018,10,24,07,05,5.00
2018,10,24,07,06,5.00
2018,10,24,07,07,5.00
2018,10,24,07,08,5.00
2018,10,24,07,09,4.90
2018,10,24,07,10,4.90
2018,10,24,07,11,4.90
2018,10,24,07,12,4.90
2018,10,24,07,13,4.90
2018,10,24,07,14,4.80
2018,10,24,07,15,4.80
2018,10,24,07,16,4.80
2018,10,24,07,17,4.80
2018,10,24,07,18,4.80
2018,10,24,07,19,4.80
2018,10,24,07,20,4.80
2018,10,24,07,21,4.80
2018,10,24,07,22,4.80
2018,10,24,07,23,4.70
2018,10,24,07,24,4.70
2018,10,24,07,25,4.70
2018,10,24,07,26,4.70
2018,10,24,07,27,4.70
2018,10,24,07,28,4.60
2018,10,24,07,29,4.60
2018,10,24,07,30,4.70
2018,10,24,07,31,4.70
2018,10,24,07,32,4.70
2018,10,24,07,33,4.70
2018,10,24,07,34,4.70
2018,10,24,07,35,4.70
2018,10,24,07,36,4.70
2018,10,24,07,37,4.70
2018,10,24,07,38,4.70
2018,10,24,07,39,4.70
2018,10,24,07,40,4.70
2018,10,24,07,41,4.70
2018,10,24,07,42,4.70
2018,10,24,07,43,4.70
2018,10,24,07,44,4.70
2018,10,24,07,45,4.70
2018,10,24,07,46,4.70
2018,10,24,07,47,4.70
2018,10,24,07,48,4.70
2018,10,24,07,49,4.70
2018,10,24,07,50,4.70
2018,10,24,07,51,4.60
2018,10,24,07,52,4.60
2018,10,24,07,53,4.60
2018,10,24,07,54,4.70
2018,10,24,07,55,4.60
2018,10,24,07,56,4.60
2018,10,24,07,57,4.60
2018,10,24,07,58,4.60
2018,10,24,07,59,4.60
2018,10,24,08,00,4.60
2018,10,24,08,01,4.60
2018,10,24,08,02,4.60
2018,10,24,08,03,4.60
2018,10,24,08,04,4.50
2018,10,24,08,05,4.50
2018,10,24,08,06,4.50
2018,10,24,08,07,4.50
2018,10,24,08,08,4.40
2018,10,24,08,09,4.40
2018,10,24,08,10,4.40
2018,10,24,08,11,4.40
2018,10,24,08,12,4.40
2018,10,24,08,13,4.40
2018,10,24,08,14,4.40
2018,10,24,08,15,4.40
2018,10,24,08,16,4.50
2018,10,24,08,17,4.50
2018,10,24,08,18,4.60
2018,10,24,08,19,4.70
2018,10,24,08,20,4.70
2018,10,24,08,21,4.70
2018,10,24,08,22,4.70
2018,10,24,08,23,4.70
2018,10,24,08,24,4.70
2018,10,24,08,25,4.70
2018,10,24,08,26,4.70
2018,10,24,08,27,4.70
2018,10,24,08,28,4.70
2018,10,24,08,29,4.70
2018,10,24,08,30,4.70
2018,10,24,08,31,4.70
2018,10,24,08,32,4.70
2018,10,24,08,33,4.70
2018,10,24,08,34,4.70
2018,10,24,08,35,4.60
2018,10,24,08,36,4.60
2018,10,24,08,37,4.60
2018,10,24,08,38,4.60
2018,10,24,08,39,4.60
2018,10,24,08,40,4.60
2018,10,24,08,41,4.60
2018,10,24,08,42,4.60
2018,10,24,08,43,4.60
2018,10,24,08,44,4.60
2018,10,24,08,45,4.60
2018,10,24,08,46,4.60
2018,10,24,08,47,4.70
2018,10,24,08,48,4.70
2018,10,24,08,49,4.70
2018,10,24,08,50,4.70
2018,10,24,08,51,4.80
2018,10,24,08,52,4.80
2018,10,24,08,53,4.80
2018,10,24,08,54,4.80
2018,10,24,08,55,4.80
2018,10,24,08,56,4.80
2018,10,24,08,57,4.80
2018,10,24,08,58,4.80
2018,10,24,08,59,4.80
2018,10,24,09,00,4.80
2018,10,24,09,01,4.80
2018,10,24,09,02,4.90
2018,10,24,09,03,4.90
2018,10,24,09,04,4.90
2018,10,24,09,05,4.90
2018,10,24,09,06,4.90
2018,10,24,09,07,4.90
2018,10,24,09,08,5.00
2018,10,24,09,09,5.00
2018,10,24,09,10,5.10
2018,10,24,09,11,5.10
2018,10,24,09,12,5.10
2018,10,24,09,13,5.20
2018,10,24,09,14,5.30
2018,10,24,09,15,5.40
2018,10,24,09,16,5.40
2018,10,24,09,17,5.40
2018,10,24,09,18,5.40
2018,10,24,09,19,5.40
2018,10,24,09,20,5.40
2018,10,24,09,21,5.50
2018,10,24,09,22,5.50
2018,10,24,09,23,5.60
2018,10,24,09,24,5.60
2018,10,24,09,25,5.70
2018,10,24,09,26,5.70
2018,10,24,09,27,5.80
2018,10,24,09,28,5.80
2018,10,24,09,29,5.80
2018,10,24,09,30,5.80
2018,10,24,09,31,5.80
2018,10,24,09,32,5.80
2018,10,24,09,33,5.80
2018,10,24,09,34,5.80
2018,10,24,09,35,5.90
2018,10,24,09,36,5.90
2018,10,24,09,37,5.90
2018,10,24,09,38,5.90
2018,10,24,09,39,6.00
2018,10,24,09,40,6.00
2018,10,24,09,41,6.10
2018,10,24,09,42,6.20
2018,10,24,09,43,6.20
2018,10,24,09,44,6.30
2018,10,24,09,45,6.40
2018,10,24,09,46,6.40
2018,10,24,09,47,6.40
2018,10,24,09,48,6.40
2018,10,24,09,49,6.40
2018,10,24,09,50,6.40
2018,10,24,09,51,6.40
2018,10,24,09,52,6.50
2018,10,24,09,53,6.50
2018,10,24,09,54,6.60
2018,10,24,09,55,6.70
2018,10,24,09,56,6.70
2018,10,24,09,57,6.80
2018,10,24,09,58,6.90
2018,10,24,09,59,6.90
2018,10,24,10,00,7.00
2018,10,24,10,01,7.10
2018,10,24,10,02,7.20
2018,10,24,10,03,7.20
2018,10,24,10,04,7.20
2018,10,24,10,05,7.30
2018,10,24,10,06,7.30
2018,10,24,10,07,7.30
2018,10,24,10,08,7.40
2018,10,24,10,09,7.40
2018,10,24,10,10,7.50
2018,10,24,10,11,7.50
2018,10,24,10,12,7.60
2018,10,24,10,13,7.60
2018,10,24,10,14,7.70
2018,10,24,10,15,7.80
2018,10,24,10,16,7.80
2018,10,24,10,17,7.90
2018,10,24,10,18,8.00
2018,10,24,10,19,8.10
2018,10,24,10,20,8.20
2018,10,24,10,21,8.30
2018,10,24,10,22,8.30
2018,10,24,10,23,8.40
2018,10,24,10,24,8.40
2018,10,24,10,25,8.50
2018,10,24,10,26,8.60
2018,10,24,10,27,8.60
2018,10,24,10,28,8.70
2018,10,24,10,29,8.80
2018,10,24,10,30,8.90
2018,10,24,10,31,9.00
2018,10,24,10,32,9.10
2018,10,24,10,33,9.20
2018,10,24,10,34,9.20
2018,10,24,10,35,9.20
2018,10,24,10,36,9.30
2018,10,24,10,37,9.30
2018,10,24,10,38,9.30
2018,10,24,10,39,9.30
2018,10,24,10,40,9.30
2018,10,24,10,41,9.40
2018,10,24,10,42,9.50
2018,10,24,10,43,9.60
2018,10,24,10,44,9.60
2018,10,24,10,45,9.70
2018,10,24,10,46,9.80
2018,10,24,10,47,9.80
2018,10,24,10,48,9.90
2018,10,24,10,49,10.00
2018,10,24,10,50,10.10
2018,10,24,10,51,10.10
2018,10,24,10,52,10.20
2018,10,24,10,53,10.20
2018,10,24,10,54,10.30
2018,10,24,10,55,10.30
2018,10,24,10,56,10.40
2018,10,24,10,57,10.40
2018,10,24,10,58,10.50
2018,10,24,10,59,10.50
2018,10,24,11,00,10.60
2018,10,24,11,01,10.60
2018,10,24,11,02,10.60
2018,10,24,11,03,10.70
2018,10,24,11,04,10.70
2018,10,24,11,05,10.80
2018,10,24,11,06,10.90
2018,10,24,11,07,10.90
2018,10,24,11,08,11.00
2018,10,24,11,09,11.10
2018,10,24,11,10,11.10
2018,10,24,11,11,11.20
2018,10,24,11,12,11.30
2018,10,24,11,13,11.30
2018,10,24,11,14,11.40
2018,10,24,11,15,11.50
2018,10,24,11,16,11.50
2018,10,24,11,17,11.60
2018,10,24,11,18,11.60
2018,10,24,11,19,11.70
2018,10,24,11,20,11.80
2018,10,24,11,21,11.80
2018,10,24,11,22,11.90
2018,10,24,11,23,11.90
2018,10,24,11,24,12.00
2018,10,24,11,25,12.00
2018,10,24,11,26,12.10
2018,10,24,11,27,12.10
2018,10,24,11,28,12.00
2018,10,24,11,29,12.00
2018,10,24,11,30,11.90
2018,10,24,11,31,11.90
2018,10,24,11,32,11.90
2018,10,24,11,33,11.90
2018,10,24,11,34,11.90
2018,10,24,11,35,12.00
2018,10,24,11,36,12.00
2018,10,24,11,37,12.10
2018,10,24,11,38,12.10
2018,10,24,11,39,12.10
2018,10,24,11,40,12.20
2018,10,24,11,41,12.20
2018,10,24,11,42,12.20
2018,10,24,11,43,12.30
2018,10,24,11,44,12.30
2018,10,24,11,45,12.30
2018,10,24,11,46,12.30
2018,10,24,11,47,12.40
2018,10,24,11,48,12.40
2018,10,24,11,49,12.40
2018,10,24,11,50,12.40
2018,10,24,11,51,12.40
2018,10,24,11,52,12.40
2018,10,24,11,53,12.40
2018,10,24,11,54,12.40
2018,10,24,11,55,12.40
2018,10,24,11,56,12.50
2018,10,24,11,57,12.50
2018,10,24,11,58,12.40
2018,10,24,11,59,12.40
2018,10,24,12,00,12.50
2018,10,24,12,01,12.50
2018,10,24,12,02,12.50
2018,10,24,12,03,12.50
2018,10,24,12,04,12.50
2018,10,24,12,05,12.50
2018,10,24,12,06,12.50
2018,10,24,12,07,12.60
2018,10,24,12,08,12.60
2018,10,24,12,09,12.60
2018,10,24,12,10,12.60
2018,10,24,12,11,12.60
2018,10,24,12,12,12.70
2018,10,24,12,13,12.70
2018,10,24,12,14,12.70
2018,10,24,12,15,12.60
2018,10,24,12,16,12.60
2018,10,24,12,17,12.60
2018,10,24,12,18,12.60
2018,10,24,12,19,12.70
2018,10,24,12,20,12.70
2018,10,24,12,21,12.80
2018,10,24,12,22,12.80
2018,10,24,12,23,12.90
2018,10,24,12,24,12.90
2018,10,24,12,25,12.90
2018,10,24,12,26,12.90
2018,10,24,12,27,12.90
2018,10,24,12,28,13.00
2018,10,24,12,29,13.10
2018,10,24,12,30,13.10
2018,10,24,12,31,13.20
2018,10,24,12,32,13.20
2018,10,24,12,33,13.20
2018,10,24,12,34,13.30
2018,10,24,12,35,13.30
2018,10,24,12,36,13.30
2018,10,24,12,37,13.40
2018,10,24,12,38,13.50
2018,10,24,12,39,13.60
2018,10,24,12,40,13.50
2018,10,24,12,41,13.50
2018,10,24,12,42,13.50
2018,10,24,12,43,13.60
2018,10,24,12,44,13.60
2018,10,24,12,45,13.60
2018,10,24,12,46,13.70
2018,10,24,12,47,13.80
2018,10,24,12,48,13.80
2018,10,24,12,49,13.80
2018,10,24,12,50,13.80
2018,10,24,12,51,13.80
2018,10,24,12,52,13.80
2018,10,24,12,53,13.80
2018,10,24,12,54,13.80
2018,10,24,12,55,13.80
2018,10,24,12,56,13.80
2018,10,24,12,57,13.80
2018,10,24,12,58,13.70
2018,10,24,12,59,13.70
2018,10,24,13,00,13.70
2018,10,24,13,01,13.60
2018,10,24,13,02,13.50
2018,10,24,13,03,13.40
2018,10,24,13,04,13.40
2018,10,24,13,05,13.30
2018,10,24,13,06,13.30
2018,10,24,13,07,13.30
2018,10,24,13,08,13.30
2018,10,24,13,09,13.30
2018,10,24,13,10,13.30
2018,10,24,13,11,13.30
2018,10,24,13,12,13.40
2018,10,24,13,13,13.40
2018,10,24,13,14,13.40
2018,10,24,13,15,13.50
2018,10,24,13,16,13.50
2018,10,24,13,17,13.60
2018,10,24,13,18,13.60
2018,10,24,13,19,13.70
2018,10,24,13,20,13.70
2018,10,24,13,21,13.80
2018,10,24,13,22,13.80
2018,10,24,13,23,13.90
2018,10,24,13,24,13.90
2018,10,24,13,25,13.90
2018,10,24,13,26,14.00
2018,10,24,13,27,14.00
2018,10,24,13,28,14.10
2018,10,24,13,29,14.00
2018,10,24,13,30,14.00
2018,10,24,13,31,14.00
2018,10,24,13,32,14.00
2018,10,24,13,33,14.00
2018,10,24,13,34,14.00
2018,10,24,13,35,14.00
2018,10,24,13,36,14.10
2018,10,24,13,37,14.00
2018,10,24,13,38,14.00
2018,10,24,13,39,14.00
2018,10,24,13,40,14.10
2018,10,24,13,41,14.10
2018,10,24,13,42,14.10
2018,10,24,13,43,14.10
2018,10,24,13,44,14.10
2018,10,24,13,45,14.10
2018,10,24,13,46,14.10
2018,10,24,13,47,14.10
2018,10,24,13,48,14.10
2018,10,24,13,49,14.10
2018,10,24,13,50,14.10
2018,10,24,13,51,14.10
2018,10,24,13,52,14.10
2018,10,24,13,53,14.10
2018,10,24,13,54,14.10
2018,10,24,13,55,14.10
2018,10,24,13,56,14.10
2018,10,24,13,57,14.10
2018,10,24,13,58,14.10
2018,10,24,13,59,14.20
2018,10,24,14,00,14.20
2018,10,24,14,01,14.30
2018,10,24,14,02,14.30
2018,10,24,14,03,14.40
2018,10,24,14,04,14.40
2018,10,24,14,05,14.50
2018,10,24,14,06,14.50
2018,10,24,14,07,14.60
2018,10,24,14,08,14.60
2018,10,24,14,09,14.70
2018,10,24,14,10,14.70
2018,10,24,14,11,14.60
2018,10,24,14,12,14.60
2018,10,24,14,13,14.60
2018,10,24,14,14,14.60
2018,10,24,14,15,14.50
2018,10,24,14,16,14.50
2018,10,24,14,17,14.50
2018,10,24,14,18,14.50
2018,10,24,14,19,14.50
2018,10,24,14,20,14.50
2018,10,24,14,21,14.40
2018,10,24,14,22,14.40
2018,10,24,14,23,14.40
2018,10,24,14,24,14.40
2018,10,24,14,25,14.40
2018,10,24,14,26,14.40
2018,10,24,14,27,14.30
2018,10,24,14,28,14.30
2018,10,24,14,29,14.30
2018,10,24,14,30,14.30
2018,10,24,14,31,14.30
2018,10,24,14,32,14.30
2018,10,24,14,33,14.30
2018,10,24,14,34,14.30
2018,10,24,14,35,14.40
2018,10,24,14,36,14.30
2018,10,24,14,37,14.30
2018,10,24,14,38,14.30
2018,10,24,14,39,14.30
2018,10,24,14,40,14.20
2018,10,24,14,41,14.20
2018,10,24,14,42,14.10
2018,10,24,14,43,14.00
2018,10,24,14,44,13.90
2018,10,24,14,45,13.90
2018,10,24,14,46,13.90
2018,10,24,14,47,13.80
2018,10,24,14,48,13.80
2018,10,24,14,49,13.80
2018,10,24,14,50,13.80
2018,10,24,14,51,13.80
2018,10,24,14,52,13.80
2018,10,24,14,53,13.80
2018,10,24,14,54,13.80
2018,10,24,14,55,13.80
2018,10,24,14,56,13.80
2018,10,24,14,57,13.80
2018,10,24,14,58,13.90
2018,10,24,14,59,13.90
2018,10,24,15,00,13.90
2018,10,24,15,01,13.90
2018,10,24,15,02,13.90
2018,10,24,15,03,13.90
2018,10,24,15,04,13.90
2018,10,24,15,05,13.90
2018,10,24,15,06,13.90
2018,10,24,15,07,13.90
2018,10,24,15,08,13.90
2018,10,24,15,09,13.90
2018,10,24,15,10,13.90
2018,10,24,15,11,13.80
2018,10,24,15,12,13.80
2018,10,24,15,13,13.80
2018,10,24,15,14,13.80
2018,10,24,15,15,13.80
2018,10,24,15,16,13.80
2018,10,24,15,17,13.80
2018,10,24,15,18,13.80
2018,10,24,15,19,13.80
2018,10,24,15,20,13.80
2018,10,24,15,21,13.80
2018,10,24,15,22,13.80
2018,10,24,15,23,13.70
2018,10,24,15,24,13.70
2018,10,24,15,25,13.70
2018,10,24,15,26,13.70
2018,10,24,15,27,13.70
2018,10,24,15,28,13.70
2018,10,24,15,29,13.70
2018,10,24,15,30,13.70
2018,10,24,15,31,13.70
2018,10,24,15,32,13.60
2018,10,24,15,33,13.60
2018,10,24,15,34,13.60
2018,10,24,15,35,13.60
2018,10,24,15,36,13.60
2018,10,24,15,37,13.60
2018,10,24,15,38,13.60
2018,10,24,15,39,13.60
2018,10,24,15,40,13.60
2018,10,24,15,41,13.60
2018,10,24,15,42,13.60
2018,10,24,15,43,13.60
2018,10,24,15,44,13.60
2018,10,24,15,45,13.60
2018,10,24,15,46,13.60
2018,10,24,15,47,13.60
2018,10,24,15,48,13.60
2018,10,24,15,49,13.60
2018,10,24,15,50,13.60
2018,10,24,15,51,13.50
2018,10,24,15,52,13.50
2018,10,24,15,53,13.50
2018,10,24,15,54,13.50
2018,10,24,15,55,13.50
2018,10,24,15,56,13.40
2018,10,24,15,57,13.40
2018,10,24,15,58,13.40
2018,10,24,15,59,13.40
2018,10,24,16,00,13.40
2018,10,24,16,01,13.40
2018,10,24,16,02,13.40
2018,10,24,16,03,13.40
2018,10,24,16,04,13.30
2018,10,24,16,05,13.30
2018,10,24,16,06,13.30
2018,10,24,16,07,13.30
2018,10,24,16,08,13.30
2018,10,24,16,09,13.40
2018,10,24,16,10,13.40
2018,10,24,16,11,13.40
2018,10,24,16,12,13.40
2018,10,24,16,13,13.30
2018,10,24,16,14,13.30
2018,10,24,16,15,13.30
2018,10,24,16,16,13.30
2018,10,24,16,17,13.30
2018,10,24,16,18,13.30
2018,10,24,16,19,13.30
2018,10,24,16,20,13.30
2018,10,24,16,21,13.30
2018,10,24,16,22,13.30
2018,10,24,16,23,13.30
2018,10,24,16,24,13.30
2018,10,24,16,25,13.30
2018,10,24,16,26,13.30
2018,10,24,16,27,13.30
2018,10,24,16,28,13.30
2018,10,24,16,29,13.20
2018,10,24,16,30,13.20
2018,10,24,16,31,13.20
2018,10,24,16,32,13.10
2018,10,24,16,33,13.10
2018,10,24,16,34,13.10
2018,10,24,16,35,13.10
2018,10,24,16,36,13.10
2018,10,24,16,37,13.10
2018,10,24,16,38,13.10
2018,10,24,16,39,13.10
2018,10,24,16,40,13.00
2018,10,24,16,41,13.10
2018,10,24,16,42,13.00
2018,10,24,16,43,13.00
2018,10,24,16,44,13.00
2018,10,24,16,45,13.00
2018,10,24,16,46,13.00
2018,10,24,16,47,13.00
2018,10,24,16,48,13.00
2018,10,24,16,49,13.00
2018,10,24,16,50,13.00
2018,10,24,16,51,13.00
2018,10,24,16,52,13.00
2018,10,24,16,53,13.10
2018,10,24,16,54,13.10
2018,10,24,16,55,13.00
2018,10,24,16,56,13.00
2018,10,24,16,57,13.00
2018,10,24,16,58,12.90
2018,10,24,16,59,12.90
2018,10,24,17,00,12.90
2018,10,24,17,01,12.90
2018,10,24,17,02,12.90
2018,10,24,17,03,12.90
2018,10,24,17,04,12.90
2018,10,24,17,05,12.90
2018,10,24,17,06,12.90
2018,10,24,17,07,12.90
2018,10,24,17,08,12.90
2018,10,24,17,09,12.90
2018,10,24,17,10,12.90
2018,10,24,17,11,12.90
2018,10,24,17,12,12.90
2018,10,24,17,13,12.90
2018,10,24,17,14,12.90
2018,10,24,17,15,12.90
2018,10,24,17,16,12.90
2018,10,24,17,17,12.80
2018,10,24,17,18,12.80
2018,10,24,17,19,12.80
2018,10,24,17,20,12.80
2018,10,24,17,21,12.80
2018,10,24,17,22,12.80
2018,10,24,17,23,12.80
2018,10,24,17,24,12.80
2018,10,24,17,25,12.80
2018,10,24,17,26,12.80
2018,10,24,17,27,12.80
2018,10,24,17,28,12.80
2018,10,24,17,29,12.80
2018,10,24,17,30,12.80
2018,10,24,17,31,12.80
2018,10,24,17,32,12.70
2018,10,24,17,33,12.70
2018,10,24,17,34,12.70
2018,10,24,17,35,12.70
2018,10,24,17,36,12.70
2018,10,24,17,37,12.70
2018,10,24,17,38,12.70
2018,10,24,17,39,12.70
2018,10,24,17,40,12.70
2018,10,24,17,41,12.60
2018,10,24,17,42,12.60
2018,10,24,17,43,12.60
2018,10,24,17,44,12.60
2018,10,24,17,45,12.60
2018,10,24,17,46,12.60
2018,10,24,17,47,12.50